Погода в Верхнем Бузане

Россия / Астраханская область     46°37′27″N   48°09′24″E
темп.,
°C
ветер,
м/с
пор.,
м/с
влажн.,
%
обл.,
%
осадки,
мм/ч
давл.,
гПа
погр.,
м
31 июля, сб
сб3101:00+21ю22420 0.0 101115
04:00+20ююв22400 0.0 101111
07:00+22ююв24380 0.0 1012103
10:00+32ю342112 0.0 10111260
13:00+37ююв341436 0.0 10103362
16:00+37юв741151 0.0 10093467
19:00+32юв772528 0.0 1010819
22:00+24ююв47532 0.0 1011113
1 августа, вс
вс101:00+22ююв2260100 0.0 101122
04:00+22ююв22638 0.0 101224
07:00+25юв12495 0.0 101282
10:00+34в34215 0.0 10121267
13:00+37вюв651397 0.0 10112769
16:00+38юв141365 0.0 10102496
19:00+36ююв671538 0.0 1010815
22:00+26ююв47355 0.0 1011100
2 августа, пн
пн201:00+24ююв35465 0.0 101259
04:00+24ююв224397 0.0 101112
07:00+28в232951 0.0 101290
10:00+38вюв561147 0.0 10121700
13:00+40юв868100 0.0 10114491
16:00+40юв75887 0.0 10114499
19:00+37юв5710100 0.0 1011554
22:00+28ю3322100 0.0 101128
3 августа, вт
вт301:00+27ююв2222100 0.0 101016
04:00+26ссв1120100 0.0 101011
07:00+29с111842 0.0 101134
10:00+37в121126 0.0 10111029
13:00+41ююв4683 0.0 10094367
16:00+41ююв9770 0.0 10084252
19:00+38ю4680 0.0 1008536
22:00+28ю44180 0.0 100946
4 августа, ср
ср401:00+26ююз34220 0.0 100943
04:00+25юз22270 0.0 100913
07:00+28зсз22210 0.0 101073
10:00+37ююв11100 0.0 1010863
13:00+41ююз1190 0.0 10093649
16:00+41сз22933 0.0 10074668
19:00+37юв78171 0.0 1007797
22:00+28з472898 0.0 1009141